Location: Norton
(51.3000°N, 0.8167°E)
Time: 11:42:47
(UTC+00:00)

Cosmos 1943 Rocket - Pass Details

Date: 03 March 2021
Orbit: 811 x 844 km, 71.0° (Epoch: 13 April)

Event Time Altitude Azimuth Distance (km) Brightness Sun altitude
Rises 22:25:21 0° 328° (NNW) 3,416 6.2 -40.3°
Reaches altitude 10° 22:27:49 10° 325° (NW) 2,476 5.3 -40.5°
Enters shadow 22:29:48 22° 320° (NW) 1,761 4.3 -40.7°
